Location: Cambroso
(45.2833°N, 12.0850°E)
Time: 19:45:24
(UTC+00:00)

USA 229 DEB - Pass Details

Date: 21 January 2021
Orbit: 965 x 1247 km, 63.4° (Epoch: 03 March)

Event Time Altitude Azimuth Distance (km) Brightness Sun altitude
Rises 18:56:21 0° 321° (NW) 3,955 7.2 -30.1°
Reaches altitude 10° 18:58:59 10° 322° (NW) 3,032 6.5 -30.6°
Maximum altitude 19:06:18 90° 248° (WSW) 1,197 3.8 -31.9°
Enters shadow 19:06:38 84° 146° (SE) 1,205 3.7 -31.9°
